[[{"header":{"parameterUnit":"m.s-1","parameterCategory":1,"la1":30.2991,"la2":30.254,"lo1":-89.0895,"lo2":-89.0444,"dy":0.0017,"dx":0.0017,"nx":28,"ny":28,"refTime":"2025-01-07T03:00:00:Z","depth":0,"parameterNumber":2,"parameterNumberName":"U-component_of_WINDS"},"data":[0,0,0,0,0,0,0,0,0,0,0,0,0,0,0,0,0,0,0,0,0,0,0,0,0,0,0,0,0,0,0,0,0,0,0,0,0,0,0,0,0,0,0,0,0,0,0,0,0,0,0,0,0,0,0,0,0,0,-1.1785,-1.1785,0,-1.1809,-1.1809,-1.181,-1.1736,-1.1734,-1.1732,-1.173,-1.1758,-1.176,-1.1763,0,0,0,0,0,0,0,0,0,0,0,0,0,-1.1678,-1.168,-1.1785,-1.1785,-1.1786,-1.1809,-1.1809,-1.181,-1.1737,-1.1734,-1.1731,-1.1729,-1.1757,-1.176,-1.1763,0,0,0,0,0,0,0,0,0,0,0,0,0,-1.1715,-1.1681,-1.1785,-1.1752,-1.1749,-1.1809,-1.1809,-1.181,-1.1737,-1.1734,-1.173,-1.1727,-1.1756,-1.176,-1.1764,-1.1858,0,0,-1.1777,-1.1779,0,0,0,0,0,0,0,0,-1.1713,-1.1719,-1.1757,-1.1754,-1.1751,-1.1766,-1.1782,-1.1826,-1.1738,-1.1742,-1.173,-1.1726,-1.1763,-1.1767,-1.1779,-1.1859,-1.1861,-1.1777,-1.178,-1.1782,-1.1783,0,0,0,0,0,0,0,-1.1711,-1.1718,-1.1795,-1.1757,-1.1754,-1.1736,-1.1738,-1.179,-1.1772,-1.1741,-1.1736,-1.174,-1.1761,-1.1775,-1.1779,-1.1861,-1.1777,-1.1781,-1.1784,-1.1785,-1.2019,-1.2022,0,0,0,0,0,0,-1.1712,-1.1716,-1.1794,-1.1795,-1.1724,-1.1741,-1.1743,-1.1765,-1.1771,-1.1768,-1.1743,-1.1736,-1.1769,-1.1774,-1.178,-1.189,-1.1782,-1.1786,-1.1788,-1.2015,-1.2019,-1.2023,0,0,0,0,0,0,-1.171,-1.172,-1.1793,-1.1754,-1.1762,-1.1747,-1.1772,-1.1767,-1.1781,-1.1772,-1.1768,-1.176,-1.1767,-1.1774,-1.1839,-1.189,-1.1788,-1.1792,-1.2011,-1.2016,-1.2021,-1.2112,0,0,0,0,0,0,-1.1707,-1.1719,-1.1755,-1.1756,-1.1765,-1.1851,-1.1775,-1.177,-1.1788,-1.178,-1.1787,-1.1785,-1.1765,-1.1833,-1.1843,-1.1894,-1.1795,-1.2006,-1.2013,-1.202,-1.2104,-1.212,-1.2133,0,0,0,0,0,-1.1704,-1.178,-1.1757,-1.1767,-1.1808,-1.1854,-1.186,-1.1834,-1.1792,-1.1828,-1.1822,-1.1785,-1.1882,-1.184,-1.1851,-1.1904,-1.2003,-1.2011,-1.2019,-1.2098,-1.2117,-1.2133,0,0,0,0,0,0,-1.1788,-1.178,-1.1754,-1.1833,-1.1845,-1.1842,-1.1886,-1.1855,-1.188,-1.1872,-1.184,-1.1842,-1.1913,-1.1914,-1.1867,-1.1995,-1.1935,-1.1946,-1.1991,-1.2009,-1.2023,-1.2022,-1.1798,0,0,0,0,0,-1.1815,-1.1852,-1.1844,-1.1914,-1.1921,-1.1903,-1.1922,-1.1901,-1.1912,-1.1917,-1.1916,-1.1929,-1.1963,-1.1986,-1.2016,-1.2103,-1.2104,-1.2145,-1.2159,-1.2171,-1.2182,-1.2227,-1.2246,-1.205,-1.205,-1.205,0,0,-1.1873,-1.1873,-1.1899,-1.1931,-1.1938,-1.1977,-1.1908,-1.1953,-1.1983,-1.1925,-1.1986,-1.1985,-1.1997,-1.2074,-1.2107,-1.2078,-1.2235,-1.2182,-1.2191,-1.2195,-1.2238,-1.2256,-1.2273,-1.2056,-1.2055,-1.2054,0,0,-1.1998,-1.2002,-1.2061,-1.2068,-1.2078,-1.2065,-1.208,-1.2081,-1.2078,-1.2138,-1.2095,-1.213,-1.2188,-1.2199,-1.2212,-1.2339,-1.2306,-1.235,-1.2426,-1.2471,-1.2486,-1.25,-1.2546,-1.2562,-1.236,-1.236,-1.236,0,-1.2069,-1.2127,-1.2095,-1.2143,-1.2159,-1.2106,-1.2166,-1.2175,-1.2195,-1.2207,-1.2173,-1.2244,-1.2249,-1.2327,-1.2358,-1.237,-1.2385,-1.235,-1.2486,-1.2499,-1.2512,-1.2555,-1.2572,-1.2365,-1.2365,-1.2364,-1.2364,0,-1.2213,-1.2254,-1.23,-1.232,-1.234,-1.2394,-1.2371,-1.2395,-1.2372,-1.2363,-1.2424,-1.2428,-1.2457,-1.2474,-1.2452,-1.2549,-1.253,-1.2491,-1.2431,-1.2536,-1.2576,-1.2593,-1.2373,-1.2371,-1.2369,-1.2368,0,0,-1.2395,-1.2394,-1.2412,-1.242,-1.2426,-1.2457,-1.2508,-1.2536,-1.2558,-1.2573,-1.2615,-1.2665,-1.2629,-1.2643,-1.2622,-1.2661,-1.2762,-1.2618,-1.2618,-1.2645,-1.2869,-1.2899,-1.2918,-1.2739,-1.2742,-1.2744,-1.2868,0,-1.2519,-1.2606,-1.2578,-1.2666,-1.2703,-1.2652,-1.2696,-1.2705,-1.2697,-1.2728,-1.2719,-1.2755,-1.2704,-1.2713,-1.2749,-1.2742,-1.2807,-1.2733,-1.2779,-1.2781,-1.2779,-1.2939,-1.2971,-1.3088,-1.2883,-1.2886,-1.2888,0,-1.2676,-1.2696,-1.2787,-1.2786,-1.2801,-1.2841,-1.2864,-1.2893,-1.2902,-1.2893,-1.2909,-1.2879,-1.2929,-1.2867,-1.2935,-1.2886,-1.2902,-1.2902,-1.2906,-1.291,-1.2842,-1.295,-1.3124,-1.3143,-1.2912,-1.291,-1.2909,0,-1.2801,-1.285,-1.2911,-1.2919,-1.2919,-1.2948,-1.295,-1.2955,-1.2973,-1.2993,-1.3004,-1.303,-1.3045,-1.3065,-1.3043,-1.3,-1.3115,-1.3051,-1.311,-1.3111,-1.3138,-1.3137,-1.332,-1.3147,-1.3147,-1.3147,-1.3146,0,-1.2943,-1.3001,-1.2966,-1.3004,-1.3067,-1.3034,-1.3098,-1.3094,-1.3099,-1.3135,-1.3092,-1.3127,-1.3094,-1.3127,-1.3109,-1.3169,-1.3175,-1.317,-1.3165,-1.3175,-1.3176,-1.3187,-1.3179,-1.3151,-1.315,-1.3149,-1.3148,0,-1.3094,-1.3073,-1.3136,-1.313,-1.3129,-1.3177,-1.3172,-1.3206,-1.3194,-1.324,-1.3249,-1.3231,-1.3266,-1.3245,-1.3281,-1.3269,-1.3347,-1.333,-1.3344,-1.334,-1.34,-1.3395,-1.3598,-1.3623,-1.3433,-1.3435,-1.3436,0,-1.3187,-1.323,-1.3228,-1.3249,-1.3253,-1.3287,-1.3304,-1.3273,-1.3293,-1.3305,-1.3339,-1.337,-1.3393,-1.3452,-1.3442,-1.3469,-1.3454,-1.3522,-1.3458,-1.3466,-1.3456,-1.3454,-1.3458,-1.3536,-1.3539,-1.354,-1.3542,0,-1.3355,-1.3342,-1.3368,-1.3391,-1.3413,-1.343,-1.3443,-1.3462,-1.3431,-1.3456,-1.349,-1.3508,-1.3544,-1.3576,-1.3599,-1.36,-1.3567,-1.3562,-1.3577,-1.3588,-1.3595,-1.3593,-1.3381,-1.3558,-1.3556,-1.3555,-1.3554,-1.3554,-1.348,-1.3516,-1.352,-1.3551,-1.3557,-1.357,-1.3602,-1.3593,-1.3621,-1.3647,-1.3626,-1.3668,-1.3674,-1.3701,-1.3707,-1.3739,-1.3711,-1.3733,-1.3739,-1.3745,-1.3754,-1.3588,-1.3743,-1.3742,-1.3742,-1.3741,-1.3741,0,-1.3647,-1.3646,-1.3674,-1.3694,-1.3718,-1.3681,-1.3693,-1.3716,-1.3753,-1.3761,-1.3784,-1.3824,-1.3854,-1.3845,-1.3872,-1.39,-1.3885,-1.3908,-1.3906,-1.3907,-1.3777,-1.3761,-1.3919,-1.3919,-1.3919,-1.3919,-1.3919,-1.3919,-1.3736,-1.3795,-1.3782,-1.3843,-1.3841,-1.3881,-1.3891,-1.3903,-1.3909,-1.3955,-1.3979,-1.3972,-1.3974,-1.4,-1.4026,-1.4022,-1.4035,-1.4064,-1.4055,-1.3934,-1.3917,-1.39,-1.3885,-1.4067,-1.4067,-1.4183,-1.4184,-1.4185]},{"header":{"parameterUnit":"m.s-1","parameterCategory":1,"la1":30.2991,"la2":30.254,"lo1":-89.0895,"lo2":-89.0444,"dy":0.0017,"dx":0.0017,"nx":28,"ny":28,"refTime":"2025-01-07T03:00:00:Z","depth":0,"parameterNumber":3,"parameterNumberName":"V-component_of_WINDS"},"data":[0,0,0,0,0,0,0,0,0,0,0,0,0,0,0,0,0,0,0,0,0,0,0,0,0,0,0,0,0,0,0,0,0,0,0,0,0,0,0,0,0,0,0,0,0,0,0,0,0,0,0,0,0,0,0,0,0,0,-6.3469,-6.347,0,-6.3545,-6.3546,-6.3547,-6.3434,-6.343,-6.3426,-6.3423,-6.3497,-6.3503,-6.3509,0,0,0,0,0,0,0,0,0,0,0,0,0,-6.3223,-6.3228,-6.3469,-6.347,-6.3471,-6.3545,-6.3546,-6.3547,-6.3435,-6.343,-6.3425,-6.3421,-6.3496,-6.3502,-6.3509,0,0,0,0,0,0,0,0,0,0,0,0,0,-6.3317,-6.3229,-6.3469,-6.3424,-6.3421,-6.3545,-6.3546,-6.3548,-6.3436,-6.343,-6.3424,-6.3419,-6.3493,-6.3502,-6.351,-6.3681,0,0,-6.3536,-6.354,0,0,0,0,0,0,0,0,-6.3312,-6.3326,-6.343,-6.3428,-6.3424,-6.3474,-6.3487,-6.3592,-6.3437,-6.343,-6.3422,-6.3416,-6.3494,-6.3502,-6.3529,-6.3684,-6.3688,-6.3537,-6.3542,-6.3545,-6.3548,0,0,0,0,0,0,0,-6.3306,-6.3323,-6.3499,-6.3431,-6.3428,-6.3399,-6.3406,-6.3506,-6.3494,-6.343,-6.3422,-6.3433,-6.3492,-6.3522,-6.353,-6.3689,-6.3536,-6.3544,-6.3549,-6.3553,-6.3985,-6.3991,0,0,0,0,0,0,-6.3305,-6.3318,-6.3497,-6.3502,-6.3352,-6.3408,-6.3416,-6.3464,-6.3493,-6.3492,-6.3438,-6.3427,-6.351,-6.3521,-6.3533,-6.3733,-6.3545,-6.3553,-6.3558,-6.3979,-6.3987,-6.3994,0,0,0,0,0,0,-6.33,-6.3322,-6.3494,-6.3408,-6.3427,-6.3419,-6.3474,-6.3469,-6.3499,-6.3499,-6.3496,-6.3471,-6.3506,-6.3521,-6.3645,-6.3734,-6.3557,-6.3565,-6.3971,-6.3981,-6.399,-6.4137,0,0,0,0,0,0,-6.3294,-6.3321,-6.3387,-6.341,-6.3432,-6.3606,-6.3479,-6.3474,-6.3514,-6.3501,-6.3529,-6.3528,-6.3502,-6.3633,-6.3653,-6.3743,-6.3572,-6.3963,-6.3976,-6.3987,-6.4125,-6.4151,-6.4173,0,0,0,0,0,-6.3285,-6.3425,-6.3391,-6.3413,-6.3515,-6.3612,-6.3624,-6.3593,-6.3522,-6.3587,-6.3587,-6.3527,-6.3721,-6.3646,-6.3668,-6.3762,-6.3957,-6.3972,-6.3986,-6.4114,-6.4146,-6.4173,0,0,0,0,0,0,-6.3413,-6.3428,-6.339,-6.3542,-6.3577,-6.3593,-6.3674,-6.3628,-6.3683,-6.3668,-6.3625,-6.3633,-6.3766,-6.3776,-6.3692,-6.3928,-6.3827,-6.3847,-6.3917,-6.3947,-6.3971,-6.3966,-6.3579,0,0,0,0,0,-6.3458,-6.3537,-6.3545,-6.3679,-6.3698,-6.3684,-6.3725,-6.3697,-6.3731,-6.3745,-6.3753,-6.3788,-6.3856,-6.3902,-6.3965,-6.4125,-6.4129,-6.42,-6.4225,-6.4245,-6.4262,-6.4346,-6.4378,-6.4041,-6.4041,-6.404,0,0,-6.3554,-6.3572,-6.3624,-6.3705,-6.3728,-6.3809,-6.3697,-6.3787,-6.3847,-6.3758,-6.3876,-6.3884,-6.3918,-6.4061,-6.4124,-6.4074,-6.4356,-6.4263,-6.4279,-6.4286,-6.4364,-6.4396,-6.4425,-6.4051,-6.4049,-6.4047,0,0,-6.3769,-6.3791,-6.3904,-6.393,-6.3967,-6.3956,-6.3984,-6.4007,-6.4009,-6.4126,-6.4061,-6.413,-6.4249,-6.4276,-6.4306,-6.453,-6.4477,-6.4552,-6.468,-6.4762,-6.4788,-6.4812,-6.4891,-6.4919,-6.4569,-6.4569,-6.457,0,-6.3883,-6.4003,-6.3967,-6.4063,-6.4099,-6.4024,-6.4136,-6.4163,-6.4219,-6.4245,-6.4188,-6.4335,-6.4353,-6.4501,-6.4555,-6.4582,-6.461,-6.4548,-6.4788,-6.4811,-6.4832,-6.4906,-6.4936,-6.4578,-6.4577,-6.4576,-6.4575,0,-6.414,-6.4225,-6.4311,-6.4368,-6.4414,-6.4518,-6.4496,-6.4547,-6.4515,-6.451,-6.463,-6.4649,-6.4714,-6.4747,-6.4716,-6.4889,-6.4857,-6.4795,-6.4692,-6.4873,-6.4943,-6.4971,-6.4591,-6.4588,-6.4585,-6.4583,0,0,-6.4439,-6.4474,-6.4506,-6.453,-6.4565,-6.4629,-6.4728,-6.4793,-6.4837,-6.4877,-6.4958,-6.506,-6.5003,-6.5036,-6.5008,-6.508,-6.5255,-6.5009,-6.5009,-6.5053,-6.5445,-6.5492,-6.5526,-6.522,-6.5225,-6.5229,-6.5442,0,-6.4653,-6.4826,-6.4796,-6.4963,-6.504,-6.4968,-6.5054,-6.5084,-6.5082,-6.5145,-6.5141,-6.5214,-6.5133,-6.5152,-6.5221,-6.522,-6.5333,-6.5204,-6.5294,-6.5297,-6.5287,-6.5562,-6.5612,-6.5812,-6.5469,-6.5474,-6.5477,0,-6.4926,-6.4977,-6.5153,-6.5174,-6.5205,-6.5284,-6.5339,-6.5402,-6.5433,-6.5426,-6.5463,-6.5421,-6.5518,-6.5415,-6.5547,-6.546,-6.5494,-6.5499,-6.5506,-6.5513,-6.5398,-6.5576,-6.5875,-6.5905,-6.552,-6.5516,-6.5513,0,-6.5125,-6.5238,-6.5357,-6.538,-6.5409,-6.5465,-6.5479,-6.5505,-6.5545,-6.5593,-6.5619,-6.5677,-6.5709,-6.5755,-6.5729,-6.5656,-6.5866,-6.576,-6.5861,-6.5862,-6.5908,-6.5906,-6.6217,-6.5932,-6.5931,-6.5931,-6.593,0,-6.5367,-6.5477,-6.5447,-6.552,-6.564,-6.5604,-6.5723,-6.5729,-6.5752,-6.5824,-6.5765,-6.5833,-6.5795,-6.586,-6.584,-6.5952,-6.5967,-6.5963,-6.5956,-6.5968,-6.5969,-6.599,-6.5976,-6.5939,-6.5937,-6.5936,-6.5934,0,-6.561,-6.5595,-6.5719,-6.5736,-6.5743,-6.5831,-6.5844,-6.5911,-6.5904,-6.5995,-6.6015,-6.6003,-6.6076,-6.6054,-6.6134,-6.612,-6.6261,-6.6237,-6.6251,-6.6245,-6.6347,-6.6338,-6.6682,-6.6725,-6.6413,-6.6416,-6.6419,0,-6.5766,-6.5848,-6.5874,-6.5918,-6.5937,-6.6009,-6.605,-6.6016,-6.6061,-6.6102,-6.6165,-6.6233,-6.6285,-6.6406,-6.6403,-6.6463,-6.6439,-6.6556,-6.6448,-6.6457,-6.644,-6.6435,-6.6443,-6.6577,-6.6581,-6.6584,-6.6586,0,-6.6043,-6.6031,-6.6092,-6.6151,-6.6201,-6.6246,-6.6284,-6.6324,-6.6292,-6.6345,-6.642,-6.6461,-6.6541,-6.6609,-6.6663,-6.6676,-6.6626,-6.662,-6.6646,-6.6659,-6.6664,-6.6662,-6.631,-6.6612,-6.661,-6.6608,-6.6606,-6.6605,-6.6246,-6.6316,-6.6345,-6.6415,-6.644,-6.6478,-6.6542,-6.6542,-6.6604,-6.6668,-6.6643,-6.6729,-6.6756,-6.6824,-6.6844,-6.6909,-6.6864,-6.6902,-6.6912,-6.6922,-6.6935,-6.6654,-6.6918,-6.6918,-6.6917,-6.6916,-6.6916,0,-6.652,-6.6534,-6.6599,-6.6655,-6.671,-6.6659,-6.6698,-6.6747,-6.6823,-6.6854,-6.6907,-6.6992,-6.7057,-6.7059,-6.712,-6.7171,-6.715,-6.7188,-6.7184,-6.7188,-6.6972,-6.6942,-6.7205,-6.7205,-6.7205,-6.7205,-6.7205,-6.7204,-6.6668,-6.6783,-6.6775,-6.6901,-6.6914,-6.6998,-6.7025,-6.7059,-6.7082,-6.718,-6.7235,-6.7236,-6.7254,-6.7316,-6.7373,-6.7371,-6.7396,-6.7443,-6.7433,-6.7232,-6.7203,-6.7175,-6.7148,-6.7449,-6.7449,-6.7644,-6.7645,-6.7647]}]]